Time,TemperatureF,DewpointF,PressureIn,WindDirection,WindDirectionDegrees,WindSpeedMPH,WindSpeedGustMPH,Humidity,HourlyPrecipIn,Conditions,Clouds,dailyrainin,SoftwareType,DateUTC
2017-08-21 00:01:00,70.5,67.4,30.13,ENE,77,0.0,0.0,90,0.00,,,0.00,Wunderground v.1.15,2017-08-21 04:01:00,
2017-08-21 00:31:00,70.2,67.4,30.13,ENE,77,0.0,0.0,91,0.00,,,0.00,Wunderground v.1.15,2017-08-21 04:31:00,
2017-08-21 01:01:00,71.1,68.0,30.13,ENE,77,0.0,0.0,90,0.00,,,0.00,Wunderground v.1.15,2017-08-21 05:01:00,
2017-08-21 01:31:00,71.6,68.5,30.13,ENE,77,0.0,0.0,90,0.00,,,0.00,Wunderground v.1.15,2017-08-21 05:31:00,
2017-08-21 02:01:00,71.0,68.2,30.13,ENE,77,0.0,0.0,91,0.00,,,0.00,Wunderground v.1.15,2017-08-21 06:01:00,
2017-08-21 02:31:00,70.6,67.8,30.12,ENE,77,0.0,0.0,91,0.00,,,0.00,Wunderground v.1.15,2017-08-21 06:31:00,
2017-08-21 03:01:00,69.8,67.4,30.12,ENE,77,0.0,0.0,92,0.00,,,0.00,Wunderground v.1.15,2017-08-21 07:01:00,
2017-08-21 03:31:00,69.0,66.9,30.12,ENE,77,0.0,0.0,93,0.00,,,0.00,Wunderground v.1.15,2017-08-21 07:31:00,
2017-08-21 04:01:00,68.7,66.9,30.12,ENE,77,0.0,0.0,94,0.00,,,0.00,Wunderground v.1.15,2017-08-21 08:01:00,
2017-08-21 04:31:00,68.2,66.7,30.13,ENE,77,0.0,0.0,95,0.00,,,0.00,Wunderground v.1.15,2017-08-21 08:31:00,
2017-08-21 05:01:00,67.8,66.3,30.13,ENE,77,0.0,0.0,95,0.00,,,0.00,Wunderground v.1.15,2017-08-21 09:01:00,
2017-08-21 05:31:00,67.4,65.9,30.13,ENE,77,0.0,0.0,95,0.00,,,0.00,Wunderground v.1.15,2017-08-21 09:31:00,
2017-08-21 06:01:00,67.0,65.8,30.14,ENE,77,0.0,0.0,96,0.00,,,0.00,Wunderground v.1.15,2017-08-21 10:01:00,
2017-08-21 06:31:00,66.8,65.6,30.14,ENE,77,0.0,0.0,96,0.00,,,0.00,Wunderground v.1.15,2017-08-21 10:31:00,
2017-08-21 07:01:00,67.1,66.2,30.14,ENE,77,0.0,0.0,97,0.00,,,0.00,Wunderground v.1.15,2017-08-21 11:01:00,
2017-08-21 07:31:00,68.9,67.7,30.14,ENE,77,0.0,0.0,96,0.00,,,0.00,Wunderground v.1.15,2017-08-21 11:31:00,
2017-08-21 08:01:00,71.2,69.4,30.15,SW,231,1.0,1.0,94,0.00,,,0.00,Wunderground v.1.15,2017-08-21 12:01:00,
2017-08-21 08:31:00,73.1,70.0,30.14,WSW,244,1.0,2.0,90,0.00,,,0.00,Wunderground v.1.15,2017-08-21 12:31:00,
2017-08-21 09:01:00,75.3,71.2,30.14,SW,234,2.0,2.0,87,0.00,,,0.00,Wunderground v.1.15,2017-08-21 13:01:00,
2017-08-21 09:31:00,77.9,71.6,30.14,WSW,255,1.0,1.0,81,0.00,,,0.00,Wunderground v.1.15,2017-08-21 13:31:00,
2017-08-21 10:01:00,79.0,72.3,30.14,SW,236,2.0,2.0,80,0.00,,,0.00,Wunderground v.1.15,2017-08-21 14:01:00,
2017-08-21 10:31:00,81.1,73.6,30.14,WSW,252,1.0,2.0,78,0.00,,,0.00,Wunderground v.1.15,2017-08-21 14:31:00,
2017-08-21 11:01:00,83.9,73.9,30.13,ESE,117,1.0,1.0,72,0.00,,,0.00,Wunderground v.1.15,2017-08-21 15:01:00,
2017-08-21 11:31:00,85.1,74.2,30.13,SW,228,1.0,3.0,70,0.00,,,0.00,Wunderground v.1.15,2017-08-21 15:31:00,
2017-08-21 12:01:00,88.6,75.8,30.12,SSE,160,1.0,1.0,66,0.00,,,0.00,Wunderground v.1.15,2017-08-21 16:01:00,
2017-08-21 12:31:00,88.8,74.1,30.11,ESE,107,2.0,2.0,62,0.00,,,0.00,Wunderground v.1.15,2017-08-21 16:31:00,
2017-08-21 13:01:00,89.9,75.1,30.10,ENE,78,1.0,3.0,62,0.00,,,0.00,Wunderground v.1.15,2017-08-21 17:01:00,
2017-08-21 13:31:00,91.0,75.2,30.09,SE,140,1.0,1.0,60,0.00,,,0.00,Wunderground v.1.15,2017-08-21 17:31:00,
2017-08-21 14:01:00,89.3,72.1,30.09,WSW,244,2.0,2.0,57,0.00,,,0.00,Wunderground v.1.15,2017-08-21 18:01:00,
2017-08-21 14:31:00,87.2,71.6,30.08,SW,234,3.0,4.0,60,0.00,,,0.00,Wunderground v.1.15,2017-08-21 18:31:00,
2017-08-21 15:01:00,87.2,71.6,30.07,SSE,157,0.0,0.0,60,0.00,,,0.00,Wunderground v.1.15,2017-08-21 19:01:00,
2017-08-21 15:31:00,87.4,76.4,30.07,ENE,77,2.0,4.0,70,0.00,,,0.00,Wunderground v.1.15,2017-08-21 19:31:00,
2017-08-21 16:01:00,89.7,77.3,30.07,ESE,121,1.0,1.0,67,0.00,,,0.00,Wunderground v.1.15,2017-08-21 20:01:00,
2017-08-21 16:31:00,89.6,74.4,30.06,South,181,1.0,1.0,61,0.00,,,0.00,Wunderground v.1.15,2017-08-21 20:31:00,
2017-08-21 17:01:00,90.7,74.9,30.05,South,169,0.0,1.0,60,0.00,,,0.00,Wunderground v.1.15,2017-08-21 21:01:00,
2017-08-21 17:31:00,90.7,74.4,30.05,SSE,151,1.0,1.0,59,0.00,,,0.00,Wunderground v.1.15,2017-08-21 21:31:00,
2017-08-21 18:01:00,87.8,73.2,30.05,South,170,2.0,2.0,62,0.00,,,0.00,Wunderground v.1.15,2017-08-21 22:01:00,
2017-08-21 18:31:00,86.3,71.7,30.04,SW,224,3.0,3.0,62,0.00,,,0.00,Wunderground v.1.15,2017-08-21 22:31:00,
2017-08-21 19:01:00,87.4,72.3,30.05,South,191,0.0,0.0,61,0.00,,,0.00,Wunderground v.1.15,2017-08-21 23:01:00,
2017-08-21 19:31:00,84.7,71.6,30.05,SW,223,1.0,1.0,65,0.00,,,0.00,Wunderground v.1.15,2017-08-21 23:31:00,
2017-08-21 20:01:00,83.3,72.1,30.06,SSE,168,0.0,0.0,69,0.00,,,0.00,Wunderground v.1.15,2017-08-22 00:01:00,
2017-08-21 20:31:00,81.1,72.4,30.07,SSW,211,0.0,0.0,75,0.00,,,0.00,Wunderground v.1.15,2017-08-22 00:31:00,
2017-08-21 21:01:00,79.2,72.1,30.06,SSE,154,0.0,0.0,79,0.00,,,0.00,Wunderground v.1.15,2017-08-22 01:01:00,
2017-08-21 21:31:00,78.4,72.1,30.06,SSE,154,0.0,0.0,81,0.00,,,0.00,Wunderground v.1.15,2017-08-22 01:31:00,
2017-08-21 22:01:00,77.2,72.0,30.07,SSW,210,0.0,0.0,84,0.00,,,0.00,Wunderground v.1.15,2017-08-22 02:01:00,